Location: Home
(42.5358°N, 72.7383°W)
Time: 09:12:01
(UTC-04:00)

A-11 Canister half - Pass Details

Date: 02 July 2022
Orbit: 1514 x 1685 km, 47.2° (Epoch: 15 August)

Event Time Altitude Azimuth Distance (km) Brightness Sun altitude
Rises 22:38:02 0° 236° (SW) 4,924 11.6 -17.3°
Reaches altitude 10° 22:41:11 10° 235° (SW) 3,942 11.1 -17.6°
Maximum altitude 22:51:22 79° 151° (SSE) 1,705 9.1 -18.5°
Drops below altitude 10° 23:01:25 10° 66° (ENE) 3,901 11.1 -19.4°
Sets 23:04:32 0° 66° (ENE) 4,871 11.6 -19.7°
